Torna al catalogo

COSMOS 2197

AttivoMilitarePO
NORAD 22034·PAYLOAD·🇷🇺 Russia

Lanciato Jul 13, 1992 da Plesetsk Cosmodrome

Loading…

Prossimi Passaggi (prossime 24 ore)

TLE

AggiornatoSource: Space-Track

Epoca: Sep 14, 2026, 04:47 UTC

1 22034U 92042A   26257.19978659  .00000034  00000-0  12729-3 0  9995
2 22034  82.5985 172.0722 0013919  71.9726  81.7077 12.64254212576531

Traccia COSMOS 2197 in tempo reale con AllMySat

Download on the App Store